Regional Weather Roundup
Issued by NWS

Current Version | Previous Version | Text Only | Print | Product List | Glossary On
Versions: 1 2 3 4 5 6 7 8 9 10 11 12 13 14 15 16 17 18 19 20 21 22 23 24 25 26 27 28 29 30 31 32 33 34 35 36 37 38 39 40 41 42 43 44 45 46 47 48 49 50
000
ASUS43 KDTX 251110
RWRMI
MICHIGAN HOURLY REGIONAL WEATHER ROUNDUP
NATIONAL WEATHER SERVICE DETROIT/PONTIAC MI
600 AM EST THU DEC 25 2014

NOTE: "FAIR" INDICATES FEW OR NO CLOUDS BELOW 12,000 FEET WITH NO
SIGNIFICANT WEATHER AND/OR OBSTRUCTION TO VISIBILITY.

MIZ047>049-052>055-059>063-066>070-074>076-081>083-251200-
SOUTHEAST LOWER MICHIGAN

CITY           SKY/WX    TMP DP  RH WIND       PRES   REMARKS
ADRIAN         CLOUDY    36  34  92 W16G22    29.74R
ALMA           LGT SNOW  34  33  96 W12       29.66R
ANN ARBOR      CLOUDY    37  34  89 W12       29.70R
BAD AXE        CLOUDY    34  34 100 W16G23    29.59R
DETROIT CITY   CLOUDY    40  34  79 W13       29.68R
DETROIT        CLOUDY    38  35  89 SW13      29.70R
FLINT          CLOUDY    38  33  82 W15       29.66R
GROSSE ILE     CLOUDY    39  36  87 SW13G25   29.69R
HILLSDALE      LGT SNOW  35  35  99 W10G20    29.72R
HOWELL         LGT RAIN  35  34  97 W12G17    29.67R

CITY           SKY/WX    TMP DP  RH WIND       PRES   REMARKS
JACKSON        CLOUDY    35  33  92 W9        29.70R
LAMBERTVILLE   CLOUDY    37  34  87 W9G20     29.74R
LANSING        CLOUDY    36  32  85 W18G24    29.69R
LAPEER         NOT AVBL
MASON          CLOUDY    34  32  92 W9        29.69R
MONROE         CLOUDY    37  36  93 W15G23    29.71R
MT. CLEMENS    CLOUDY    39  38  98 W15G22    29.64R
PONTIAC        CLOUDY    36  33  89 W14       29.65R
PORT HOPE        N/A     36  32  85 W10G26    29.54R
PORT HURON     CLOUDY    37  36  93 W8        29.64R
TRI CITIES     CLOUDY    36  32  85 W15       29.64R
YPSILANTI      CLOUDY    41  34  76 W14       29.70R
$$
MIZ043>046-050>051-056>058-064>065-071>073-077>080-251200-
SOUTHWEST LOWER MICHIGAN

CITY           SKY/WX    TMP DP  RH WIND       PRES   REMARKS
BATTLE CREEK   LGT RAIN  37  32  82 W12       29.73R
BENTON HARBOR  CLOUDY    37  31  78 W20G26    29.78R
BIG RAPIDS     CLOUDY    34  33  95 W13       29.63R
COLDWATER      CLOUDY    36  33  89 W16       29.74R
HOLLAND        CLOUDY    39  31  72 W14G21    29.74R
GRAND RAPIDS   CLOUDY    37  33  85 W13G22    29.70R
KALAMAZOO      CLOUDY    37  32  82 W12       29.74R
MARSHALL       CLOUDY    35  32  90 W16       29.72R
MUSKEGON       CLOUDY    38  30  73 W16       29.71R
$$
MIZ016>042-251200-
NORTHERN LOWER MICHIGAN

CITY           SKY/WX    TMP DP  RH WIND       PRES   REMARKS
ALPENA         CLOUDY    33  32  96 W9        29.50R
BEAVER ISLAND  CLOUDY    34  30  83 W16G22    29.54R
BELLAIRE       CLOUDY    36  30  79 W8        29.59R
CADILLAC       CLOUDY    32  30  92 W13G22    29.58R
CHARLEVOIX     CLOUDY    35  30  82 W23G31    29.58R
FRANKFORT      CLOUDY    36  31  84 W15G21    29.63R
GAYLORD        CLOUDY    32  30  92 W10G24    29.51R
GRAYLING       LGT SNOW  33  33 100 W10G20    29.55R
HARBOR SPRINGS CLOUDY    34  30  83 W12G24    29.53R
HOUGHTON LAKE  LGT SNOW  32  30  92 W16G23    29.57R FOG
MANISTEE       CLOUDY    36  27  69 W18G24    29.65R
OSCODA         CLOUDY    34  32  92 W9        29.53R
PELLSTON       CLOUDY    35  30  82 W20G28    29.51R
TRAVERSE CITY  CLOUDY    36  30  79 W10       29.60R
$$
MIZ007>008-015-251200-
EASTERN UPPER MICHIGAN

CITY           SKY/WX    TMP DP  RH WIND       PRES   REMARKS
KINROSS        CLOUDY    34  34 100 W16G23    29.44R
MACKINAC ISLAN CLOUDY    33  33  99 W20G26    29.48R
NEWBERRY       CLOUDY    32  32  99 W14G20    29.49R
S. S. MARIE    LGT SNOW  33  31  92 W14G25    29.43R FOG
$$
MIZ004>006-011>014-085-251200-
CENTRAL UPPER MICHIGAN

CITY           SKY/WX    TMP DP  RH WIND       PRES   REMARKS
MANISTIQUE     CLOUDY    33  31  92 W9        29.54R
ESCANABA       CLOUDY    32  28  86 SW7       29.56R
MENOMINEE      PTCLDY    32  28  86 W7        29.61R
SAWYER-GWINN   MOCLDY    31  28  90 W9        29.52R
$$
MIZ001>003-009>011-084-251200-
WESTERN UPPER MICHIGAN

CITY           SKY/WX    TMP DP  RH WIND       PRES   REMARKS
IRON MOUNTAIN  CLOUDY    33  28  81 W9        29.55R
HOUGHTON       LGT SNOW  33  30  88 W22       29.49R FOG
COPPER HARBOR    N/A     35  30  82 NW8       29.49R
IRONWOOD       CLOUDY    30  28  93 SW7       29.52R
$$

ABBREVIATIONS USED IN REMARKS
   TC - TEMPERATURE IN CELSIUS
  WCI - WIND CHILL INDEX
   HX - HEAT INDEX
  VSB - VISIBILITY



USA.gov is the U.S. government's official web portal to all federal, state and local government web resources and services.